Home > Weather > Bantam > Past weeks

Flag for Cocos Islands Weather for the Past 2 Weeks in Bantam, Cocos Islands

Now
84 °F

Scattered clouds.


Feels Like: 91 °F
Forecast: 81 / 86 °F
Wind: 8 mph from East

Location: Cocos Island Airport

Current Time: Feb 7, 2016 at 3:40:20 PM

Latest Report: Feb 7, 2016 at 3:00 PM


Visibility: N/A

Pressure: 29.77 "Hg

Humidity: 70%

Dew point: 73 °F

Location of BantamLocation

Historic Weather in Bantam — Graph

°F

Bantam Temperature Yesterday

Maximum temperature yesterday: 86 °F (at 10:30 AM)
Minimum temperature yesterday: 81 °F (at 1:00 AM)
Average temperature yesterday: 83 °F

High & Low Weather Summary for the Past Weeks

 TemperatureHumidityPressure
High88 °F (Jan 24, 12:00 PM)94% (Jan 23, 8:35 PM)29.89 "Hg (Jan 23, 8:35 PM)
Low79 °F (Jan 23, 8:30 PM)52% (Feb 1, 12:30 PM)29.71 "Hg (Feb 1, 4:30 PM)
Average83 °F76%29.80 "Hg
* Reported Jan 23 2:30 PM — Feb 7 2:30 PM, Bantam, Weather by CustomWeather, © 2016

Note: Actual official high and low records may vary slightly from our data, if they occured in-between our weather recording intervals... More about our weather records

Advertising

Bantam Weather History for the Previous 24 Hours

 ConditionsComfort  
Time TempWeatherWind HumidityBarometerVisibility
2:30 PM
Sun, Feb 7
86 °FScattered clouds.8 mph66%29.77 "HgN/A
1:30 PM86 °FPartly sunny.8 mph66%29.80 "HgN/A
1:00 PM86 °FPartly sunny.9 mph66%29.80 "HgN/A
12:30 PM86 °FPartly sunny.8 mph66%29.80 "HgN/A
12:00 PM86 °FBroken clouds.9 mph70%29.83 "HgN/A
11:30 AM86 °FBroken clouds.8 mph70%29.83 "HgN/A
11:00 AM86 °FBroken clouds.9 mph70%29.83 "HgN/A
10:30 AM84 °FBroken clouds.8 mph70%29.86 "HgN/A
10:00 AM84 °FPartly sunny.8 mph70%29.86 "HgN/A
9:30 AM84 °FPartly sunny.9 mph70%29.86 "HgN/A
8:30 AM82 °FPartly sunny.12 mph74%29.83 "HgN/A
8:00 AM82 °FPartly sunny.10 mph74%29.83 "HgN/A
7:30 AM82 °FPartly sunny.8 mph74%29.83 "HgN/A
6:30 AM82 °FPartly cloudy.8 mph74%29.80 "HgN/A
6:00 AM81 °FPartly cloudy.8 mph79%29.77 "HgN/A
5:30 AM82 °FClear.9 mph74%29.77 "Hg10 mi
5:00 AM82 °FOvercast.9 mph74%29.77 "HgN/A
4:30 AM82 °FMostly cloudy.9 mph70%29.77 "HgN/A
3:30 AM81 °FOvercast.8 mph79%29.77 "HgN/A
3:00 AM81 °FMostly cloudy.9 mph79%29.77 "HgN/A
2:30 AM81 °FMostly cloudy.6 mph79%29.77 "HgN/A
2:00 AM81 °FPartly cloudy.7 mph79%29.77 "HgN/A
1:30 AM81 °FClear.6 mph74%29.80 "HgN/A
1:00 AM81 °FPassing clouds.6 mph79%29.80 "HgN/A
12:30 AM81 °FPassing clouds.6 mph79%29.83 "HgN/A
11:30 PM
Sat, Feb 6
81 °FPassing clouds.7 mph79%29.83 "HgN/A
11:00 PM81 °FPassing clouds.7 mph79%29.86 "HgN/A
10:30 PM82 °FClear.7 mph74%29.86 "HgN/A
10:00 PM82 °FClear.10 mph74%29.83 "HgN/A
9:30 PM82 °FClear.9 mph70%29.83 "HgN/A
9:00 PM82 °FClear.9 mph70%29.83 "HgN/A
8:30 PM82 °FClear.10 mph70%29.80 "HgN/A
8:00 PM82 °FClear.10 mph70%29.80 "HgN/A
7:30 PM82 °FScattered clouds.13 mph74%29.80 "HgN/A
7:00 PM82 °FScattered clouds.10 mph74%29.80 "HgN/A
6:30 PM82 °FScattered clouds.12 mph74%29.77 "HgN/A
6:00 PM84 °FScattered clouds.15 mph70%29.77 "HgN/A
5:30 PM84 °FScattered clouds.15 mph70%29.77 "HgN/A
5:00 PM84 °FScattered clouds.15 mph70%29.74 "HgN/A
4:30 PM84 °FScattered clouds.14 mph70%29.74 "HgN/A
4:00 PM84 °FScattered clouds.15 mph70%29.74 "HgN/A
3:30 PM84 °FScattered clouds.15 mph66%29.74 "HgN/A
3:00 PM84 °FScattered clouds.16 mph70%29.77 "HgN/A
Weather by CustomWeather, © 2016

See weather overviewHow to use our weather pages